SCP
0 -0 0 -0 -0 -0 -0 -0 -0 -0 -0 -0 -0 -0 -0 -0 -0 -0 -0 -0 -0 0 0 0 0 0 0 0 0 0 0 0 0 0 -0 -0 -0 -0 -0 -0 0 0 0
0 -0 -0 -0 -0 -0 -0 -0 -0 -0 0 0 0 -0 0 -0 -0 -0 -0 -0 -0 -0 -0 0 0 0 0 0 0 0 0 0 0 0 0 0 0 0 0 0 0 0 0
-0 -0 -0 -0 -0 -0 -0 -0 -0 -0 -0 -0 -0 0 0 0 0 -0 -0 -0 -0 -0 -0 -0 0 0 0 0 0 0 0 0 0 0 0 0 0 0 0 0 0 0 0
-0 -0 -0 -0 -0 -0 -0 -0 -0 -0 -0 -0 -0 -0 -0 -0 -0 -0 -0 -0 -0 -0 -0 -0 0 0 0 0 0 0 0 0 0 0 0 0 0 0 0 0 0 0 0
-0 -0 -0 -0 -0 -0 -0 -0 -0 -0 -0 -0 -0 -0 -0 -0 -0 -0 -0 0 0 0 -0 -0 -0 0 0 0 0 0 0 0 0 -0 0 0 0 0 0 0 0 0 0
0 -0 -0 -0 -0 -0 -0 -0 -0 -0 -0 -0 -0 -0 -0 -0 0 0 0 0 0 0 0 0 0 0 0 0 0 0 0 0 -0 0 0 0 0 0 0 0 0 0 0
0 0 -0 0 -0 -0 -0 -0 -0 -0 -0 -0 -0 -0 -0 -0 0 0 0 0 0 0 0 0 0 0 0 0 0 0 0 0 0 0 0 0 0 0 0 0 0 0 0
0 0 -0 -0 -0 -0 0 -0 -0 -0 -0 -0 0 0 0 -0 0 0 0 0 0 0 0 0 0 0 0 0 0 0 0 0 0 0 0 0 0 0 0 0 0 0 0
0 0 0 0 0 -0 -0 0 0 0 0 0 0 0 0 0 0 0 0 0 0 0 0 0 0 0 0 0 0 0 0 0 0 0 0 0 0 0 0 0 0 0 0
0 0 0 0 0 0 0 0 0 0 0 0 0 0 0 0 0 0 0 0 0 0 0 0 0 0 0 0 0 0 0 0 0 0 0 0 0 0 0 0 0 0 0
0 0 0 0 0 0 0 0 0 0 0 0 0 0 0 0 0 0 0 0 0 0 0 0 0 0 0 0 0 0 0 0 0 0 0 0 0 0 0 0 0 0 0
0 0 0 0 0 0 0 0 0 0 0 0 0 0 0 0 0 0 0 0 0 0 0 0 0 0 0 0 0 0 0 0 0 0 0 0 0 0 0 0 0 0 0
0 0 0 0 0 0 0 0 0 0 0 0 0 0 0 0 0 0 0 0 0 0 0 0 0 0 0 0 0 0 0 0 0 0 0 0 0 0 0 0 0 0 0
0 0 0 0 0 0 0 0 0 0 0 0 0 0 0 0 0 0 0 0 0 0 0 0 0 0 0 0 0 0 0 0 0 0 0 0 0 0 0 0 0 0 0
0 0 0 0 0 0 0 0 0 0 0 0 0 0 0 0 0 0 0 0 0 0 0 0 0 0 0 0 0 0 0 0 0 0 0 0 0 0 0 0 0 0 0
0 0 0 0 0 0 0 0 0 0 0 0 0 0 0 0 0 0 0 0 0 0 0 0 0 0 0 0 0 0 0 0 0 0 0 0 0 0 0 0 0 0 0
0 0 0 0 0 0 0 0 0 0 0 0 0 0 0 0 0 0 0 0 0 0 0 0 0 0 -0 0 0 0 0 0 0 0 0 0 0 0 0 0 0 0 0
0 0 0 0 0 0 0 0 0 0 0 0 0 0 0 0 0 0 0 0 0 0 0 0 0 0 -0 -0 0 0 0 0 0 0 0 0 0 0 0 0 0 0 0
0 0 0 0 0 0 0 0 0 0 0 0 0 0 0 0 0 0 0 0 0 0 0 0 0 0 0 0 0 0 0 0 0 0 0 0 0 0 0 0 0 0 0
0 0 0 0 0 0 0 0 0 0 0 0 0 0 0 0 0 0 0 0 0 0 0 0 0 0 0 0 0 0 0 0 0 0 0 0 0 0 0 0 0 0 0
0 0 0 0 0 0 0 0 0 0 0 0 0 0 0 0 0 0 0 0 0 0 0 0 0 0 0 0 0 0 0 0 0 0 0 0 0 0 0 0 0 0 0
0 0 0 0 0 0 0 0 0 0 0 0 0 0 0 0 0 0 0 0 0 0 0 0 0 0 0 0 0 0 0 0 0 0 0 0 0 0 0 0 0 0 0
0 0 0 0 0 0 0 0 0 0 0 0 0 0 0 0 0 0 0 0 0 0 0 0 0 0 0 0 0 0 0 0 0 0 0 0 0 0 0 0 0 0 0
0 0 0 0 0 0 0 0 0 0 0 0 0 0 0 0 0 0 0 0 0 0 0 0 0 0 0 0 0 0 0 0 -0 0 0 0 0 0 0 0 0 0 0
0 0 0 0 0 0 0 0 0 0 0 0 0 0 0 0 0 0 0 0 0 0 0 0 0 0 0 0 0 0 0 0 0 0 -0 -0 -0 -0 -0 0 0 0 0
0 0 0 0 0 0 0 0 0 0 0 0 0 0 0 0 0 0 0 0 0 0 0 0 0 0 0 0 0 0 0 0 0 0 0 0 0 -0 0 -0 -0 0 0
Wind_Speed_500mb
25 39 32 30 28 26 24 22 20 17 16 16 15 16 15 12 9 8 10 12 14 14 15 15 15 15 14 12 14 14 13 14 14 13 13 15 18 13 12 14 17 16 17
24 39 35 31 29 27 23 21 17 16 13 11 11 12 14 13 9 12 5 10 14 13 12 12 13 13 12 10 11 10 11 12 11 8 8 12 14 17 16 12 11 14 13
24 37 33 30 27 25 23 22 20 16 12 10 8 8 7 5 8 12 11 13 13 14 11 11 12 12 9 8 7 6 7 7 8 9 10 12 8 9 12 16 17 17 14
23 35 32 32 28 23 22 25 21 16 13 9 8 7 7 7 3 6 14 15 15 14 14 11 11 11 8 5 2 4 3 4 6 9 13 13 12 5 5 4 4 9 14
19 32 31 29 30 26 23 23 21 17 12 11 9 6 5 3 2 6 14 16 14 13 12 10 11 10 7 4 2 2 3 1 3 7 10 14 13 10 6 2 4 3 4
13 28 29 25 27 26 25 24 23 18 14 12 11 6 6 16 8 8 14 16 15 13 10 9 11 9 8 3 1 3 4 3 2 8 8 10 8 11 11 10 2 2 2
11 20 26 25 22 22 21 19 19 17 15 12 10 8 5 5 5 10 17 17 16 12 8 11 10 9 6 5 2 2 4 5 7 7 3 6 5 10 11 10 6 3 3
13 14 20 26 25 23 22 22 21 19 17 16 13 10 11 7 8 11 16 12 13 7 7 9 8 8 6 4 2 1 3 4 4 2 1 3 6 7 10 11 9 9 7
10 15 17 22 28 27 25 23 22 20 19 17 15 15 16 12 12 12 14 12 8 4 7 8 8 6 4 3 2 2 2 3 4 4 3 7 7 9 13 12 12 10 7
13 16 18 20 25 27 27 27 25 22 20 19 20 20 19 16 16 18 16 12 8 8 8 8 8 7 3 1 3 3 3 4 5 6 8 10 11 13 13 11 13 10 9
16 17 19 22 24 27 30 31 27 25 23 23 23 22 20 19 17 14 18 12 11 9 12 10 8 6 3 3 5 6 6 5 6 7 10 10 11 14 14 13 12 11 11
18 21 22 24 25 26 29 32 27 29 28 27 24 23 23 19 16 15 15 15 19 13 11 11 11 10 9 8 7 8 8 9 9 10 12 12 13 14 14 13 13 15 13
22 25 29 30 30 30 26 25 26 30 30 27 24 23 24 21 22 17 18 17 20 19 16 20 19 13 13 13 13 13 13 12 13 14 15 15 15 16 17 17 14 14 15
10 15 24 33 37 35 31 23 20 23 24 23 23 21 18 17 21 20 17 17 18 19 17 19 21 22 18 15 15 17 19 19 19 18 19 18 18 18 18 18 17 18 18
11 15 19 25 29 38 35 25 20 21 26 28 31 29 25 25 22 19 18 18 17 20 22 20 24 24 22 19 19 19 21 23 24 25 24 24 22 21 20 19 19 19 17
17 20 21 22 24 33 38 33 31 27 25 26 26 29 28 25 24 24 23 18 20 22 24 23 24 29 36 25 22 23 25 26 28 29 30 28 28 27 26 24 22 21 19
13 14 14 14 21 40 44 40 33 26 21 17 16 22 22 24 31 26 23 26 28 29 21 24 21 26 31 42 38 35 31 29 31 32 33 34 33 33 31 29 28 27 25
8 6 5 10 23 39 42 38 32 25 17 11 7 10 16 18 17 22 23 21 15 11 8 12 16 23 30 43 46 47 48 42 39 36 35 36 37 37 37 37 35 33 30
15 18 19 26 32 36 38 35 28 24 16 13 9 5 1 14 16 8 10 11 9 7 8 12 17 23 29 36 40 49 56 54 46 44 42 41 39 38 39 39 40 40 39
25 26 29 33 36 35 34 33 31 25 21 17 12 8 3 2 9 12 6 4 9 12 14 17 23 29 36 46 47 44 36 32 30 30 31 33 35 36 38 40 41 43 44
33 35 37 38 44 41 40 33 30 28 26 20 15 13 6 5 3 5 8 11 9 16 17 18 19 23 27 26 25 26 15 25 9 16 17 21 22 23 26 29 33 38 42
39 39 39 38 38 33 31 25 25 23 23 23 20 15 11 7 5 5 10 12 13 16 16 17 18 22 25 32 34 22 15 12 8 20 8 21 20 21 27 30 34 37 39
42 42 39 37 35 33 31 32 35 36 35 33 30 28 27 24 22 19 18 18 17 17 20 23 24 26 29 31 33 26 14 12 48 16 33 11 19 38 31 39 38 42 45
51 49 47 45 43 41 38 35 34 34 37 35 30 27 24 21 19 18 18 17 18 20 21 25 27 29 30 30 26 25 21 23 16 27 30 55 41 61 58 52 43 43 43
51 49 45 43 41 39 36 31 31 31 31 29 26 19 17 17 16 16 17 19 20 22 24 23 25 28 31 33 35 34 30 29 20 29 53 49 80 69 74 59 70 59 51
48 45 42 38 38 37 34 31 27 26 26 24 22 15 15 14 15 16 20 22 24 25 27 29 30 31 32 34 35 38 39 35 31 33 48 65 81 79 82 83 70 70 65
Wind_Direction_500mb
176 175 175 170 171 167 167 162 157 147 139 131 127 115 99 85 71 60 38 38 34 34 37 40 45 48 52 50 70 93 105 102 101 96 85 86 72 83 100 107 96 91 90
184 177 174 166 167 171 173 168 162 154 145 125 118 109 101 90 46 1 41 47 34 30 33 32 36 42 42 53 56 75 99 104 100 85 72 67 83 76 72 90 101 97 90
177 182 179 171 170 174 179 177 170 165 161 146 131 120 102 60 32 350 39 56 41 32 32 26 29 26 31 39 63 79 110 101 82 67 58 61 71 96 85 76 82 79 81
170 184 183 179 179 181 179 178 180 181 175 176 172 150 131 117 95 327 9 23 18 14 17 13 18 17 16 11 36 125 134 115 70 50 64 66 50 113 120 107 73 79 77
162 182 187 184 182 185 180 186 188 188 199 185 188 192 224 313 345 342 353 356 353 354 356 357 9 6 359 327 232 194 173 247 68 61 57 68 55 73 59 227 254 300 323
157 181 189 190 187 190 189 193 199 207 201 202 200 236 301 341 333 358 344 334 336 345 345 357 2 3 5 360 253 197 187 173 72 85 75 46 55 39 34 25 242 277 291
156 178 191 199 197 194 195 198 200 205 209 210 225 254 262 325 15 4 347 335 353 355 6 358 6 14 16 20 40 158 165 175 112 126 86 62 355 9 7 22 36 6 316
158 176 195 202 203 202 205 211 215 221 219 222 232 244 266 300 343 348 352 340 338 356 12 4 9 25 34 44 56 152 147 151 143 163 190 314 332 349 350 350 342 332 321
171 179 188 203 209 208 210 215 217 224 230 230 234 234 246 275 309 329 340 349 1 25 25 14 9 23 50 86 140 179 159 158 176 215 246 271 302 316 324 332 331 328 318
191 192 196 200 208 211 216 225 216 227 230 238 246 242 246 265 292 299 309 297 0 19 22 23 11 8 351 262 218 214 218 207 210 227 247 266 280 291 303 321 321 321 312
210 210 207 206 209 214 211 223 217 219 230 239 250 248 246 258 276 284 299 292 316 8 18 19 6 358 310 274 263 257 254 258 258 256 257 265 273 284 298 309 308 307 308
225 226 224 224 222 217 218 211 219 222 225 236 245 253 249 249 255 276 312 328 331 338 340 354 1 345 327 298 273 264 269 275 280 280 279 281 281 282 288 297 305 307 310
241 239 240 237 235 230 220 219 212 217 228 232 239 247 249 251 263 287 303 308 325 338 338 341 329 334 326 307 288 277 271 267 267 271 276 280 283 286 291 293 295 299 304
248 247 248 250 243 235 222 213 211 209 222 229 230 233 239 261 266 273 283 298 304 316 310 314 326 316 316 300 290 280 274 272 270 270 270 270 272 277 284 289 295 298 302
267 258 256 253 247 228 217 197 197 196 203 216 218 230 237 238 259 270 273 273 284 294 295 292 308 319 318 302 294 289 281 274 271 270 271 271 271 272 274 277 283 289 299
296 292 279 261 240 213 197 187 192 195 205 208 221 225 223 234 241 252 253 264 278 281 279 278 302 319 318 313 302 298 291 284 278 272 269 268 269 270 272 272 272 272 273
307 296 280 246 196 184 183 187 188 193 201 201 217 230 229 229 232 243 237 251 261 250 238 270 290 308 326 322 321 309 296 289 284 281 278 275 271 270 269 268 270 273 270
31 27 78 145 162 166 173 180 179 168 170 175 203 226 250 263 261 266 257 254 263 237 239 282 301 311 315 310 309 306 304 297 292 289 286 281 277 276 275 273 271 270 269
88 92 103 125 143 156 160 163 168 172 172 170 168 195 44 243 238 250 230 207 185 257 308 310 320 315 312 307 302 300 300 302 290 285 283 282 281 277 274 272 270 269 269
114 113 116 127 137 145 153 151 149 142 137 130 126 117 136 111 78 81 85 333 335 327 319 312 311 314 313 307 305 308 309 302 296 283 280 285 288 284 278 275 271 268 267
124 122 128 134 136 139 140 143 145 144 137 146 143 129 125 99 35 353 316 317 335 327 337 347 346 333 323 325 334 346 10 347 325 339 313 307 303 304 301 294 287 282 276
136 132 131 133 131 134 139 149 148 140 136 127 124 131 129 123 100 69 62 53 34 26 13 359 360 2 357 355 0 357 347 343 285 17 15 310 296 304 303 301 296 293 290
137 136 140 142 143 143 137 129 124 123 119 117 113 109 99 90 83 77 69 56 43 31 20 16 13 13 19 15 13 23 350 330 328 291 313 314 301 312 309 311 306 299 290
132 130 129 128 126 123 123 124 125 122 122 112 104 92 87 79 67 56 48 38 26 20 14 9 6 4 1 2 3 8 1 341 329 315 302 310 306 313 310 309 309 308 304
128 128 129 128 128 126 125 127 129 128 120 114 103 96 85 71 59 44 32 25 19 14 12 7 2 359 357 355 353 348 340 334 322 310 311 303 308 313 314 309 311 309 308
136 135 135 136 134 134 135 133 126 118 113 112 109 103 80 63 49 32 19 11 7 2 358 355 353 350 348 346 342 338 336 334 318 312 304 305 309 312 307 309 307 308 306
Wind_Speed_850mb
25 39 32 30 28 26 24 22 20 17 16 16 15 16 15 12 9 8 10 12 14 14 15 15 15 15 14 12 14 14 13 14 14 13 13 15 18 13 12 14 17 16 17
24 39 35 31 29 27 23 21 17 16 13 11 11 12 14 13 9 12 5 10 14 13 12 12 13 13 12 10 11 10 11 12 11 8 8 12 14 17 16 12 11 14 13
24 37 33 30 27 25 23 22 20 16 12 10 8 8 7 5 8 12 11 13 13 14 11 11 12 12 9 8 7 6 7 7 8 9 10 12 8 9 12 16 17 17 14
23 35 32 32 28 23 22 25 21 16 13 9 8 7 7 7 3 6 14 15 15 14 14 11 11 11 8 5 2 4 3 4 6 9 13 13 12 5 5 4 4 9 14
19 32 31 29 30 26 23 23 21 17 12 11 9 6 5 3 2 6 14 16 14 13 12 10 11 10 7 4 2 2 3 1 3 7 10 14 13 10 6 2 4 3 4
13 28 29 25 27 26 25 24 23 18 14 12 11 6 6 16 8 8 14 16 15 13 10 9 11 9 8 3 1 3 4 3 2 8 8 10 8 11 11 10 2 2 2
11 20 26 25 22 22 21 19 19 17 15 12 10 8 5 5 5 10 17 17 16 12 8 11 10 9 6 5 2 2 4 5 7 7 3 6 5 10 11 10 6 3 3
13 14 20 26 25 23 22 22 21 19 17 16 13 10 11 7 8 11 16 12 13 7 7 9 8 8 6 4 2 1 3 4 4 2 1 3 6 7 10 11 9 9 7
10 15 17 22 28 27 25 23 22 20 19 17 15 15 16 12 12 12 14 12 8 4 7 8 8 6 4 3 2 2 2 3 4 4 3 7 7 9 13 12 12 10 7
13 16 18 20 25 27 27 27 25 22 20 19 20 20 19 16 16 18 16 12 8 8 8 8 8 7 3 1 3 3 3 4 5 6 8 10 11 13 13 11 13 10 9
16 17 19 22 24 27 30 31 27 25 23 23 23 22 20 19 17 14 18 12 11 9 12 10 8 6 3 3 5 6 6 5 6 7 10 10 11 14 14 13 12 11 11
18 21 22 24 25 26 29 32 27 29 28 27 24 23 23 19 16 15 15 15 19 13 11 11 11 10 9 8 7 8 8 9 9 10 12 12 13 14 14 13 13 15 13
22 25 29 30 30 30 26 25 26 30 30 27 24 23 24 21 22 17 18 17 20 19 16 20 19 13 13 13 13 13 13 12 13 14 15 15 15 16 17 17 14 14 15
10 15 24 33 37 35 31 23 20 23 24 23 23 21 18 17 21 20 17 17 18 19 17 19 21 22 18 15 15 17 19 19 19 18 19 18 18 18 18 18 17 18 18
11 15 19 25 29 38 35 25 20 21 26 28 31 29 25 25 22 19 18 18 17 20 22 20 24 24 22 19 19 19 21 23 24 25 24 24 22 21 20 19 19 19 17
17 20 21 22 24 33 38 33 31 27 25 26 26 29 28 25 24 24 23 18 20 22 24 23 24 29 36 25 22 23 25 26 28 29 30 28 28 27 26 24 22 21 19
13 14 14 14 21 40 44 40 33 26 21 17 16 22 22 24 31 26 23 26 28 29 21 24 21 26 31 42 38 35 31 29 31 32 33 34 33 33 31 29 28 27 25
8 6 5 10 23 39 42 38 32 25 17 11 7 10 16 18 17 22 23 21 15 11 8 12 16 23 30 43 46 47 48 42 39 36 35 36 37 37 37 37 35 33 30
15 18 19 26 32 36 38 35 28 24 16 13 9 5 1 14 16 8 10 11 9 7 8 12 17 23 29 36 40 49 56 54 46 44 42 41 39 38 39 39 40 40 39
25 26 29 33 36 35 34 33 31 25 21 17 12 8 3 2 9 12 6 4 9 12 14 17 23 29 36 46 47 44 36 32 30 30 31 33 35 36 38 40 41 43 44
33 35 37 38 44 41 40 33 30 28 26 20 15 13 6 5 3 5 8 11 9 16 17 18 19 23 27 26 25 26 15 25 9 16 17 21 22 23 26 29 33 38 42
39 39 39 38 38 33 31 25 25 23 23 23 20 15 11 7 5 5 10 12 13 16 16 17 18 22 25 32 34 22 15 12 8 20 8 21 20 21 27 30 34 37 39
42 42 39 37 35 33 31 32 35 36 35 33 30 28 27 24 22 19 18 18 17 17 20 23 24 26 29 31 33 26 14 12 48 16 33 11 19 38 31 39 38 42 45
51 49 47 45 43 41 38 35 34 34 37 35 30 27 24 21 19 18 18 17 18 20 21 25 27 29 30 30 26 25 21 23 16 27 30 55 41 61 58 52 43 43 43
51 49 45 43 41 39 36 31 31 31 31 29 26 19 17 17 16 16 17 19 20 22 24 23 25 28 31 33 35 34 30 29 20 29 53 49 80 69 74 59 70 59 51
48 45 42 38 38 37 34 31 27 26 26 24 22 15 15 14 15 16 20 22 24 25 27 29 30 31 32 34 35 38 39 35 31 33 48 65 81 79 82 83 70 70 65
Wind_Direction_850mb
176 175 175 170 171 167 167 162 157 147 139 131 127 115 99 85 71 60 38 38 34 34 37 40 45 48 52 50 70 93 105 102 101 96 85 86 72 83 100 107 96 91 90
184 177 174 166 167 171 173 168 162 154 145 125 118 109 101 90 46 1 41 47 34 30 33 32 36 42 42 53 56 75 99 104 100 85 72 67 83 76 72 90 101 97 90
177 182 179 171 170 174 179 177 170 165 161 146 131 120 102 60 32 350 39 56 41 32 32 26 29 26 31 39 63 79 110 101 82 67 58 61 71 96 85 76 82 79 81
170 184 183 179 179 181 179 178 180 181 175 176 172 150 131 117 95 327 9 23 18 14 17 13 18 17 16 11 36 125 134 115 70 50 64 66 50 113 120 107 73 79 77
162 182 187 184 182 185 180 186 188 188 199 185 188 192 224 313 345 342 353 356 353 354 356 357 9 6 359 327 232 194 173 247 68 61 57 68 55 73 59 227 254 300 323
157 181 189 190 187 190 189 193 199 207 201 202 200 236 301 341 333 358 344 334 336 345 345 357 2 3 5 360 253 197 187 173 72 85 75 46 55 39 34 25 242 277 291
156 178 191 199 197 194 195 198 200 205 209 210 225 254 262 325 15 4 347 335 353 355 6 358 6 14 16 20 40 158 165 175 112 126 86 62 355 9 7 22 36 6 316
158 176 195 202 203 202 205 211 215 221 219 222 232 244 266 300 343 348 352 340 338 356 12 4 9 25 34 44 56 152 147 151 143 163 190 314 332 349 350 350 342 332 321
171 179 188 203 209 208 210 215 217 224 230 230 234 234 246 275 309 329 340 349 1 25 25 14 9 23 50 86 140 179 159 158 176 215 246 271 302 316 324 332 331 328 318
191 192 196 200 208 211 216 225 216 227 230 238 246 242 246 265 292 299 309 297 0 19 22 23 11 8 351 262 218 214 218 207 210 227 247 266 280 291 303 321 321 321 312
210 210 207 206 209 214 211 223 217 219 230 239 250 248 246 258 276 284 299 292 316 8 18 19 6 358 310 274 263 257 254 258 258 256 257 265 273 284 298 309 308 307 308
225 226 224 224 222 217 218 211 219 222 225 236 245 253 249 249 255 276 312 328 331 338 340 354 1 345 327 298 273 264 269 275 280 280 279 281 281 282 288 297 305 307 310
241 239 240 237 235 230 220 219 212 217 228 232 239 247 249 251 263 287 303 308 325 338 338 341 329 334 326 307 288 277 271 267 267 271 276 280 283 286 291 293 295 299 304
248 247 248 250 243 235 222 213 211 209 222 229 230 233 239 261 266 273 283 298 304 316 310 314 326 316 316 300 290 280 274 272 270 270 270 270 272 277 284 289 295 298 302
267 258 256 253 247 228 217 197 197 196 203 216 218 230 237 238 259 270 273 273 284 294 295 292 308 319 318 302 294 289 281 274 271 270 271 271 271 272 274 277 283 289 299
296 292 279 261 240 213 197 187 192 195 205 208 221 225 223 234 241 252 253 264 278 281 279 278 302 319 318 313 302 298 291 284 278 272 269 268 269 270 272 272 272 272 273
307 296 280 246 196 184 183 187 188 193 201 201 217 230 229 229 232 243 237 251 261 250 238 270 290 308 326 322 321 309 296 289 284 281 278 275 271 270 269 268 270 273 270
31 27 78 145 162 166 173 180 179 168 170 175 203 226 250 263 261 266 257 254 263 237 239 282 301 311 315 310 309 306 304 297 292 289 286 281 277 276 275 273 271 270 269
88 92 103 125 143 156 160 163 168 172 172 170 168 195 44 243 238 250 230 207 185 257 308 310 320 315 312 307 302 300 300 302 290 285 283 282 281 277 274 272 270 269 269
114 113 116 127 137 145 153 151 149 142 137 130 126 117 136 111 78 81 85 333 335 327 319 312 311 314 313 307 305 308 309 302 296 283 280 285 288 284 278 275 271 268 267
124 122 128 134 136 139 140 143 145 144 137 146 143 129 125 99 35 353 316 317 335 327 337 347 346 333 323 325 334 346 10 347 325 339 313 307 303 304 301 294 287 282 276
136 132 131 133 131 134 139 149 148 140 136 127 124 131 129 123 100 69 62 53 34 26 13 359 360 2 357 355 0 357 347 343 285 17 15 310 296 304 303 301 296 293 290
137 136 140 142 143 143 137 129 124 123 119 117 113 109 99 90 83 77 69 56 43 31 20 16 13 13 19 15 13 23 350 330 328 291 313 314 301 312 309 311 306 299 290
132 130 129 128 126 123 123 124 125 122 122 112 104 92 87 79 67 56 48 38 26 20 14 9 6 4 1 2 3 8 1 341 329 315 302 310 306 313 310 309 309 308 304
128 128 129 128 128 126 125 127 129 128 120 114 103 96 85 71 59 44 32 25 19 14 12 7 2 359 357 355 353 348 340 334 322 310 311 303 308 313 314 309 311 309 308
136 135 135 136 134 134 135 133 126 118 113 112 109 103 80 63 49 32 19 11 7 2 358 355 353 350 348 346 342 338 336 334 318 312 304 305 309 312 307 309 307 308 306